Location: Centerville
(32.8776°N, 96.6203°W)
Time: 01:04:26
(UTC+00:00)

Lacrosse 5 rocket - Pass Details

Date: 17 June 2021
Orbit: 459 x 634 km, 57.0° (Epoch: 27 July)

Event Time Altitude Azimuth Distance (km) Brightness Sun altitude
Rises 04:46:21 0° 262° (W) 2,544 4.9 -28.8°
Reaches altitude 10° 04:49:32 10° 291° (WNW) 1,638 4.3 -29.1°
Maximum altitude 04:51:18 13° 320° (NW) 1,449 4.3 -29.2°
Drops below altitude 10° 04:53:04 10° 349° (N) 1,618 4.6 -29.4°
Sets 04:56:10 0° 19° (NNE) 2,484 5.3 -29.7°
